Theta_e
312 318 322 319 320 319 321 320 316 321 320 315 316 316 314 312 310 310 307 306 303 305 308 307 306 306 305 306 305 306 306 305 303 301 300 300 299 298 296 294 294 293 293 292 290 290 290 289 290 290 290 291 291 291 291 291 290 290 290 289 289 289 289 288 288 288 288 288 288 287 287 288 288 288 287 287 287 287 286 286 286 286 286 286 286 286
311 318 321 320 319 318 318 315 310 311 309 308 311 311 310 310 309 307 306 306 305 305 308 309 308 307 305 306 306 306 307 307 305 303 302 302 301 299 297 295 294 294 293 292 290 289 288 289 289 289 289 290 290 290 291 290 290 290 290 289 289 289 288 288 288 288 288 287 287 287 287 287 287 287 287 287 287 286 286 286 286 286 285 286 286 286
317 320 319 317 314 310 309 306 306 309 308 308 311 310 310 310 310 310 307 307 305 305 309 310 307 307 306 306 307 307 307 307 307 306 305 304 303 300 298 296 295 294 294 293 291 288 287 287 287 288 288 289 290 290 290 290 290 290 290 289 289 289 288 288 288 287 287 287 287 287 287 286 286 286 286 286 286 286 286 286 285 285 285 286 286 286
322 325 317 310 309 310 308 303 304 308 308 310 311 312 313 310 311 313 310 307 307 306 307 308 306 306 306 306 306 308 307 307 307 306 306 304 303 302 299 297 296 295 294 293 291 289 287 287 286 286 287 288 289 290 290 290 290 290 289 289 289 289 288 288 287 287 287 286 286 286 286 286 285 286 286 286 286 286 287 287 286 286 286 286 286 285
322 320 307 304 308 313 313 305 304 307 310 314 312 310 313 312 312 313 311 308 310 309 305 307 309 310 311 309 308 309 307 307 305 305 306 303 301 302 301 299 297 296 295 293 292 290 288 286 286 286 286 287 288 289 290 290 290 290 289 289 289 289 288 288 287 287 286 286 286 286 285 285 285 285 285 286 286 286 286 286 286 286 285 285 284 284
321 311 304 308 308 311 315 311 310 310 312 318 317 312 311 312 312 311 310 309 314 317 308 307 313 312 314 315 315 315 313 312 310 308 309 306 302 301 300 299 298 296 296 294 292 291 288 287 286 286 286 287 287 288 290 290 290 290 289 289 289 288 288 287 287 286 286 286 285 285 285 284 284 284 284 284 284 284 284 284 284 284 284 283 283 283
318 306 305 313 311 310 313 313 313 311 312 316 316 312 309 308 310 309 309 310 318 319 308 308 316 314 312 315 319 319 317 315 312 310 310 308 305 303 300 299 298 297 295 294 293 291 289 287 287 286 285 286 287 288 290 290 290 290 289 289 288 288 288 287 286 286 286 285 285 285 284 284 283 283 284 284 282 282 282 282 283 284 284 284 282 283
314 308 307 311 312 312 311 314 313 309 314 318 312 311 311 308 310 311 309 310 313 312 308 309 312 313 312 314 315 314 313 312 310 311 309 306 305 304 301 299 298 297 295 294 293 291 290 288 287 286 286 286 287 288 289 290 290 289 289 288 288 288 287 286 286 286 285 285 285 284 284 283 282 282 283 282 281 281 281 282 283 283 284 284 283 283
311 312 313 312 313 314 314 317 313 308 315 317 308 307 310 309 312 312 308 309 309 307 311 311 307 310 314 314 312 308 308 313 314 315 312 309 309 306 303 301 298 297 295 293 293 291 290 288 287 287 286 286 286 288 289 290 290 289 288 288 288 287 287 286 286 285 285 285 284 284 283 282 282 281 281 281 280 280 280 280 282 281 282 282 282 283
310 309 311 313 315 315 315 311 306 309 313 309 304 306 308 308 308 308 308 308 310 310 314 313 307 311 315 314 313 308 309 315 316 316 313 311 312 308 305 303 299 296 295 293 292 291 290 288 287 287 286 286 286 288 289 289 289 289 288 288 287 287 286 286 285 285 285 284 284 283 282 282 281 281 280 280 280 279 279 279 280 280 280 281 281 282
308 304 305 311 314 313 311 305 301 306 308 303 306 310 312 311 307 308 311 310 312 315 316 313 308 309 314 316 315 311 313 317 316 315 313 313 316 313 306 303 300 297 295 292 292 291 289 288 287 286 286 286 286 287 288 289 289 288 288 287 287 286 286 286 285 285 284 284 283 283 282 281 281 280 279 279 279 279 279 279 279 279 279 280 281 282
308 307 309 311 310 308 310 308 303 302 302 305 313 315 316 317 313 315 316 312 315 319 318 313 306 307 312 315 314 312 312 314 314 316 319 319 321 319 309 302 300 297 294 292 291 290 288 287 286 285 285 285 286 286 287 288 288 288 287 287 286 286 286 285 285 284 284 283 283 282 281 280 280 279 279 279 279 279 278 278 278 279 279 280 281 282
315 312 311 309 306 308 315 315 307 303 303 307 315 318 319 319 319 322 320 316 318 319 314 307 305 307 309 311 311 310 311 311 310 312 318 321 323 320 310 304 301 296 293 292 290 289 288 287 286 285 285 285 285 286 286 287 287 287 287 286 286 286 285 285 285 284 283 283 282 281 280 280 279 279 279 278 278 278 277 277 277 278 278 279 281 281
320 314 308 308 309 309 314 315 313 311 307 306 313 319 320 320 321 322 318 315 315 316 310 303 307 311 310 311 310 309 309 310 307 306 309 314 318 315 307 301 300 295 292 291 289 288 288 287 286 285 285 285 285 285 286 287 287 287 287 286 286 285 285 285 284 284 283 282 281 280 280 280 279 279 278 278 278 277 277 277 277 277 277 278 279 279
319 315 312 313 314 311 310 312 317 316 308 306 312 315 317 323 324 320 320 317 316 320 314 304 309 315 313 314 313 309 308 309 308 307 305 306 306 304 300 298 298 295 291 289 288 288 287 287 286 285 285 285 285 285 285 286 287 286 286 286 285 285 285 284 284 283 282 281 281 280 280 280 279 279 278 278 278 277 277 277 277 277 277 277 278 277
315 317 316 310 309 308 308 312 313 312 309 308 311 312 314 320 318 314 319 316 314 320 316 308 311 315 311 312 313 310 308 307 308 306 305 306 303 301 301 300 298 294 291 289 288 288 287 287 286 286 285 285 285 285 285 286 286 286 286 285 285 285 285 284 283 282 281 281 280 280 280 280 279 279 278 278 278 278 278 277 277 277 277 277 277 277
315 318 313 305 306 305 304 307 308 311 312 308 309 312 312 312 313 315 317 312 310 315 316 313 313 312 310 311 312 311 309 308 307 303 303 305 302 301 303 301 298 294 291 289 288 288 287 286 286 286 286 285 285 285 285 285 286 286 286 286 285 284 284 283 282 282 281 281 280 280 280 280 279 278 278 278 279 279 279 278 277 277 277 277 277 276
317 318 312 307 310 304 297 303 306 306 308 310 314 313 308 308 311 317 319 316 314 315 317 316 313 310 311 311 309 308 308 309 307 304 304 303 300 301 302 300 297 294 290 289 288 287 287 286 286 286 286 285 285 285 284 285 286 286 286 286 285 284 284 283 282 281 281 281 280 280 280 279 279 279 279 279 279 279 278 278 277 277 277 277 276 276
316 315 314 308 309 303 297 303 309 304 301 307 312 308 308 313 314 314 316 317 316 315 318 319 313 309 310 310 310 309 310 311 308 305 305 303 301 301 301 300 298 293 290 289 287 287 287 286 286 286 285 285 285 285 285 285 285 285 285 285 285 284 283 282 281 281 280 280 280 280 280 280 279 279 279 279 279 278 278 277 277 277 277 276 276 275
314 314 316 306 303 304 301 305 313 308 301 301 304 303 306 312 315 315 314 315 317 315 315 315 311 310 312 314 314 311 312 313 311 309 307 305 303 301 299 300 299 294 290 289 287 287 286 286 286 285 285 285 284 284 284 285 285 285 285 284 284 283 282 281 280 280 280 280 280 280 280 280 280 280 280 279 279 278 277 277 277 276 276 275 275 274
314 314 316 309 302 305 307 308 311 311 305 303 305 306 306 306 311 314 311 312 317 316 315 314 310 310 314 315 315 314 313 310 312 314 311 307 305 301 298 299 299 295 291 289 288 287 286 286 285 285 285 284 283 283 284 284 285 284 284 284 284 283 282 280 280 279 279 279 279 280 280 280 280 280 279 279 278 277 277 276 276 275 274 274 274 273
316 315 315 314 309 308 310 307 305 309 309 306 306 307 306 306 310 312 311 311 313 315 317 316 311 309 313 313 316 320 315 308 311 315 311 310 309 304 300 298 297 296 293 290 288 287 286 285 285 284 283 283 283 282 283 284 284 284 284 284 283 282 281 280 279 279 278 278 279 280 280 280 279 279 278 278 277 276 276 275 275 274 273 273 272 271
319 318 314 315 314 311 306 302 301 307 308 306 307 308 307 306 308 311 312 311 312 312 312 313 313 311 313 319 323 326 321 313 313 313 310 312 311 307 303 297 295 294 292 289 287 286 286 285 284 283 282 282 281 281 282 283 283 283 283 283 282 281 280 279 279 278 278 278 279 280 279 279 278 278 277 277 276 275 275 274 274 273 272 271 271 270
317 316 313 314 315 311 304 299 300 303 305 307 308 307 306 306 307 310 311 311 314 313 310 312 312 309 313 323 325 324 321 315 312 310 310 312 311 307 303 298 294 292 290 288 287 286 285 284 283 282 282 281 281 281 281 282 282 283 283 282 281 280 279 279 278 277 278 279 279 279 279 278 277 276 276 275 274 274 274 274 273 272 270 270 270 269
314 316 315 314 316 315 310 306 304 303 304 308 309 306 306 306 306 308 308 309 311 311 310 311 311 308 312 317 314 312 312 310 308 306 304 307 308 306 302 297 292 290 289 288 286 285 285 284 283 283 282 281 281 280 280 281 281 282 281 281 280 280 279 277 277 277 278 279 279 278 277 277 276 275 275 274 273 273 273 273 271 270 269 269 269 269
315 318 314 313 315 315 313 310 312 310 305 305 308 307 306 306 306 307 308 309 309 309 310 310 310 309 310 312 309 308 308 309 308 305 301 301 302 301 300 296 292 290 289 287 286 285 284 284 283 283 282 281 281 280 280 280 281 281 281 280 279 279 278 276 277 277 278 278 278 277 277 276 275 275 274 273 273 273 272 271 270 269 268 268 267 267
317 318 313 312 314 312 310 310 313 315 309 307 309 308 306 306 306 306 309 309 310 310 310 309 309 310 309 309 310 310 309 310 309 306 305 304 300 298 297 295 292 290 288 287 285 285 284 284 283 283 282 281 280 280 280 280 280 280 280 279 279 278 277 276 277 277 277 277 277 276 276 275 275 274 273 273 273 273 271 270 268 268 267 266 266 266
314 315 312 312 312 310 311 310 310 313 311 309 310 309 307 306 306 307 309 308 310 312 311 309 309 310 310 309 309 309 309 309 308 308 307 307 306 303 299 296 293 291 288 286 285 285 284 284 283 283 282 281 280 280 280 279 280 280 279 279 278 277 276 276 277 277 276 276 276 276 275 275 274 273 273 273 273 272 270 268 267 267 266 266 265 265
312 313 312 312 312 311 310 310 310 310 309 309 310 310 309 307 306 307 308 307 308 310 310 309 309 310 309 308 308 308 308 308 308 308 308 308 309 308 303 299 296 293 289 286 286 285 284 284 283 283 282 281 280 279 279 278 279 279 279 278 277 276 276 276 276 276 276 275 275 275 274 274 273 272 273 273 272 270 268 267 267 267 266 266 265 265
311 311 312 311 310 310 310 310 309 308 307 308 309 309 309 307 306 306 306 306 307 308 308 308 309 309 308 308 308 308 308 308 308 308 308 308 308 308 306 302 298 294 290 288 286 285 284 284 284 283 282 280 280 279 278 277 277 278 278 277 276 275 275 275 275 275 275 275 274 274 274 273 273 272 273 273 271 269 268 267 267 267 267 267 265 264
309 310 312 310 310 311 310 310 309 309 308 308 308 308 308 307 306 306 305 306 306 307 307 307 307 307 307 307 308 308 308 307 307 308 308 307 307 307 307 304 300 296 291 288 287 285 284 284 284 283 281 281 280 279 277 276 276 277 277 276 275 275 275 275 275 275 275 274 274 273 273 272 272 273 273 271 269 268 267 267 267 267 267 266 265 264
308 310 311 310 312 312 311 311 311 310 309 308 309 309 308 308 308 307 307 307 307 307 307 307 307 307 306 306 307 307 307 307 307 307 307 306 307 307 306 306 304 299 293 290 287 285 285 284 284 283 282 281 280 279 277 276 276 276 276 276 275 274 274 274 274 274 274 273 273 273 272 272 273 273 272 270 268 268 267 267 268 268 267 265 264 263
311 312 311 311 311 312 312 313 313 312 311 310 310 310 309 310 310 309 309 308 308 307 307 308 308 307 307 308 307 307 307 307 307 307 306 306 306 306 306 306 305 301 296 292 288 286 285 285 284 283 282 281 280 278 277 277 277 277 276 276 274 274 274 273 273 273 272 272 272 272 272 272 273 272 270 269 268 267 267 268 268 267 266 264 263 263
312 311 311 311 311 312 313 313 313 313 312 312 312 312 311 310 310 310 310 310 309 308 307 307 307 307 307 308 307 307 307 307 307 307 306 307 306 306 306 306 305 303 298 293 289 287 286 285 284 283 282 281 279 278 277 278 279 278 276 275 274 273 273 273 272 272 272 272 272 272 272 273 272 271 269 268 268 268 268 268 268 266 265 264 263 263
312 310 309 310 310 311 313 313 313 313 312 312 314 314 311 310 311 310 309 309 309 308 308 308 307 307 307 307 307 307 307 306 307 306 306 308 308 307 307 306 305 303 299 294 290 288 286 285 284 282 281 280 279 277 277 277 278 276 274 273 273 272 272 272 271 271 272 272 271 272 272 273 271 269 268 268 269 269 269 268 267 265 264 263 263 263
310 310 309 310 310 311 311 312 313 313 312 311 312 311 309 309 310 309 309 309 308 308 308 308 308 307 308 308 307 307 307 307 307 306 306 308 308 307 305 305 304 303 299 295 292 289 286 285 283 282 281 279 277 276 276 276 276 274 272 272 271 271 271 271 271 271 271 271 272 272 272 271 270 268 268 268 269 269 269 267 266 265 264 263 263 263
309 310 310 310 311 312 311 311 312 312 312 311 311 310 309 309 309 309 309 309 308 308 308 307 308 308 307 308 307 307 307 307 307 307 306 307 307 305 303 303 304 302 299 295 291 288 286 284 283 282 280 277 276 275 275 275 274 273 271 270 270 270 271 270 270 271 271 272 272 272 271 270 268 267 268 269 269 269 268 266 265 264 263 263 263 262
309 309 310 311 312 312 312 312 312 312 312 311 310 309 309 310 310 309 309 310 308 308 308 308 308 308 308 308 307 308 309 309 308 308 307 307 308 305 302 301 300 299 296 292 289 286 284 283 282 280 278 276 274 274 275 274 273 271 270 269 270 270 270 270 271 271 271 272 272 272 271 269 267 267 268 269 268 268 267 266 265 264 263 263 262 262
309 309 309 310 311 312 313 313 312 312 312 311 310 309 309 312 312 310 310 310 309 308 308 308 308 308 308 308 308 309 310 309 308 308 307 308 308 306 303 299 295 293 291 288 286 285 283 281 279 277 276 274 273 273 274 273 272 271 269 269 269 269 269 270 271 271 272 272 271 271 270 268 266 267 268 268 268 268 267 265 265 264 263 263 263 263
309 309 309 309 310 310 311 312 312 312 312 311 311 310 310 311 311 311 311 311 309 309 309 308 309 308 308 308 308 309 310 309 309 309 307 305 303 299 297 295 292 290 288 285 284 283 280 278 276 274 274 273 272 272 272 272 271 270 269 268 269 269 269 270 271 271 272 272 271 270 269 267 267 267 267 268 268 268 267 265 264 264 263 263 263 263
309 309 309 309 309 310 310 311 311 311 311 312 311 310 309 310 310 311 313 311 310 312 312 310 310 309 308 309 309 309 309 307 308 308 304 301 299 295 291 289 288 286 285 283 281 279 277 276 275 274 273 272 271 271 271 271 270 269 268 268 268 268 269 270 271 271 272 271 270 269 267 266 267 267 267 267 268 268 267 265 264 263 263 263 263 263
309 310 310 310 310 310 310 311 311 310 311 311 309 307 308 309 311 312 311 310 312 315 314 311 310 309 308 309 308 307 307 306 306 305 301 298 298 294 288 286 285 283 281 280 278 277 276 275 274 273 272 271 270 270 271 271 270 268 268 267 267 268 269 270 271 272 271 270 270 268 267 265 266 266 267 268 268 268 267 266 264 263 263 263 262 262
312 311 311 310 310 310 310 311 312 312 313 310 308 306 307 310 311 311 309 310 312 312 312 310 308 307 308 308 307 306 306 306 304 301 298 294 292 289 285 285 284 282 279 278 277 276 276 274 273 272 270 269 269 269 270 271 269 267 267 267 267 268 269 270 271 271 270 270 269 267 266 266 266 267 268 268 268 267 266 266 264 263 263 262 262 262
313 313 313 311 311 312 312 312 311 312 311 310 308 307 308 308 309 310 310 310 310 310 310 309 307 306 306 307 308 306 304 304 301 297 295 292 289 287 285 283 282 280 278 277 276 276 275 273 271 270 268 268 268 268 270 271 269 267 266 267 267 268 269 270 270 270 270 269 268 267 266 266 267 267 268 268 268 267 266 265 263 262 262 262 261 262
313 313 314 312 312 312 312 312 310 309 309 309 308 308 308 307 307 309 310 310 310 310 310 309 308 307 306 306 307 306 304 303 300 296 295 292 288 285 284 282 280 278 276 275 275 275 274 272 270 268 267 267 267 267 269 271 271 267 266 266 267 268 269 270 269 269 269 269 267 267 266 267 267 267 268 268 267 265 264 264 262 261 261 261 262 263
312 312 313 313 312 312 311 311 311 311 310 309 308 308 309 308 307 308 309 309 309 309 310 310 309 309 307 306 306 306 305 303 299 295 293 290 286 283 282 280 278 276 275 275 274 274 272 270 268 267 266 266 266 267 267 269 270 269 267 267 268 269 270 269 269 269 269 268 268 267 268 268 268 268 268 267 266 264 263 262 261 261 261 261 262 263
313 313 313 312 313 314 313 313 312 311 310 309 308 308 308 308 308 307 307 307 307 307 308 309 308 308 308 306 304 305 304 302 299 295 291 288 284 282 281 279 277 275 275 274 273 272 270 268 268 267 266 265 265 265 266 267 268 269 268 268 268 269 269 269 268 268 268 267 268 268 269 269 269 268 268 267 266 265 264 263 261 260 261 262 263 263
314 313 313 313 313 313 313 313 312 312 311 310 310 309 308 307 307 307 307 307 307 307 307 308 307 307 306 305 304 304 304 302 299 295 291 287 283 281 280 278 276 275 274 273 272 270 268 268 268 267 266 265 264 264 265 265 266 267 268 268 269 269 269 268 268 267 267 267 267 268 268 269 269 269 268 266 264 263 263 263 262 261 261 262 263 264
314 313 314 313 312 313 313 312 312 313 312 311 310 310 308 307 307 307 307 307 307 308 307 307 307 305 305 304 303 302 303 302 298 295 291 287 283 281 279 277 276 275 274 272 270 269 268 268 267 266 265 264 263 263 263 263 264 265 267 267 268 269 268 267 267 266 266 266 266 267 267 267 268 268 268 266 264 262 262 263 262 262 262 263 264 265
313 313 313 313 313 314 314 312 312 312 312 312 311 311 310 308 307 307 308 307 307 308 307 307 307 304 303 303 302 302 303 302 297 293 290 287 283 281 279 277 275 274 272 270 269 268 268 267 267 266 265 263 263 262 262 262 263 264 266 267 268 268 268 267 266 265 265 265 265 266 266 266 266 267 267 266 264 263 263 264 263 262 262 264 265 266
313 313 313 314 314 314 313 313 313 313 312 312 311 311 310 309 309 308 308 308 308 308 307 307 307 305 303 301 300 301 303 302 297 292 290 287 283 280 278 276 275 273 271 269 269 268 268 267 266 265 264 263 262 261 261 261 262 263 265 266 267 267 268 268 267 265 265 265 265 265 265 265 266 265 265 264 262 261 262 264 266 265 264 263 263 265
Wind_Speed
2 0 3 7 7 7 8 8 6 4 6 5 4 4 5 6 7 7 4 3 0 2 8 10 9 13 16 18 21 11 4 9 15 11 9 13 12 9 9 11 13 14 11 12 18 23 28 31 33 33 33 33 31 31 30 28 25 21 18 17 15 12 11 9 8 7 7 6 6 6 7 7 6 7 7 6 7 7 8 9 11 13 14 15 17 18
3 2 8 10 8 6 5 6 6 5 5 4 4 4 5 5 7 8 4 4 2 2 6 7 7 13 16 17 20 14 8 15 17 10 13 18 14 9 10 13 13 11 7 8 14 20 26 30 32 33 33 34 33 33 31 29 26 22 19 17 15 13 11 9 8 8 8 7 7 7 8 9 9 8 8 8 8 8 9 10 12 14 15 17 17 18
2 6 11 6 6 6 5 5 7 5 5 3 3 2 4 4 4 7 4 4 2 2 4 6 8 15 17 18 23 20 13 17 14 10 15 18 14 10 11 13 11 10 8 9 11 16 24 28 29 30 32 34 34 33 32 29 26 23 20 19 16 14 13 10 10 9 9 9 8 8 8 10 11 9 9 10 9 10 11 12 13 15 16 17 17 18
2 8 8 4 8 8 6 4 6 5 3 3 3 3 5 3 1 5 4 4 2 2 4 7 10 14 14 16 20 15 8 12 11 9 14 15 12 11 11 11 11 13 13 12 11 13 19 24 27 29 31 32 32 32 33 31 28 25 23 20 18 16 14 13 11 11 10 9 9 9 9 11 12 11 10 11 10 11 13 13 13 15 16 18 18 18
7 7 4 7 6 8 6 3 6 5 2 3 5 7 6 4 5 6 3 4 4 2 3 6 10 10 7 10 12 6 3 7 7 6 12 12 9 9 8 9 12 14 14 13 13 13 16 22 27 29 30 32 33 34 35 34 31 28 24 21 19 18 16 14 13 12 11 11 10 10 10 11 12 12 12 11 12 12 14 15 15 15 17 18 19 19
9 6 7 7 4 6 6 4 6 8 3 4 6 11 10 7 7 6 3 5 4 3 3 4 7 8 2 4 8 4 3 7 3 5 13 12 7 7 9 9 11 12 11 11 13 14 16 22 26 27 29 32 34 36 37 36 33 29 25 22 20 18 17 15 14 13 12 12 11 10 10 11 11 13 13 12 13 14 15 16 17 17 17 19 20 20
3 1 4 6 6 5 5 5 6 8 5 3 5 8 8 6 4 4 1 2 1 3 3 3 1 9 4 3 7 5 5 10 8 7 13 12 6 8 10 10 10 9 8 9 11 14 16 21 23 26 31 34 35 37 37 35 33 29 24 22 21 19 17 16 14 14 14 13 12 11 10 10 10 13 14 12 13 15 16 17 18 18 18 19 20 21
2 4 4 4 6 6 5 6 7 10 7 4 3 4 6 6 5 5 3 2 3 1 3 0 3 8 9 6 6 4 5 12 14 14 14 11 8 9 10 10 10 9 9 10 11 14 16 20 25 28 32 35 35 36 36 36 33 28 25 23 21 19 18 16 15 15 15 14 12 11 10 11 11 12 14 14 14 15 16 18 18 19 19 19 21 22
3 5 5 6 5 4 6 5 8 12 5 4 4 6 6 6 5 4 4 3 2 2 3 4 4 5 11 5 1 3 3 10 13 16 15 11 10 9 9 10 9 8 9 11 12 14 15 21 28 31 32 33 34 35 36 36 33 29 25 23 21 20 18 16 15 15 15 14 12 11 10 11 11 12 13 14 15 16 16 18 19 20 21 22 22 23
2 4 7 7 6 6 4 1 4 8 4 3 6 6 5 5 4 4 3 2 1 2 7 8 7 5 10 4 3 2 3 9 11 12 12 10 9 8 8 8 6 6 8 10 11 12 15 22 27 29 29 31 33 35 36 36 33 29 26 24 23 21 18 16 15 15 15 13 12 10 10 11 11 11 12 14 15 16 16 18 20 21 22 23 24 25
1 1 3 4 4 5 4 3 2 3 3 6 7 5 5 4 4 3 1 2 1 4 9 10 13 10 9 3 5 4 5 9 10 9 8 8 9 8 6 5 5 6 7 8 9 8 12 19 24 26 28 30 33 34 34 34 33 30 27 25 24 21 18 15 14 14 14 12 11 10 9 10 11 11 12 14 15 16 16 19 20 21 23 24 25 26
2 1 2 2 3 5 6 5 3 3 3 5 4 3 3 3 3 4 4 3 1 6 6 5 9 11 10 6 4 6 7 8 9 9 9 9 9 6 4 4 5 6 6 7 7 7 9 13 18 24 26 28 31 33 34 34 33 30 27 25 24 21 17 14 13 14 13 11 10 9 9 10 10 10 11 13 15 16 16 18 20 22 24 25 26 27
2 4 3 1 2 5 6 4 3 4 2 4 4 4 2 4 3 3 3 1 3 8 4 2 4 6 12 11 7 8 11 11 10 10 10 9 9 5 3 4 4 5 6 7 7 8 9 10 14 20 24 26 29 33 35 35 33 31 28 26 24 21 16 13 13 13 12 10 9 9 9 9 9 10 11 12 14 15 16 17 19 21 23 25 26 27
3 4 2 3 3 4 8 6 3 2 3 6 5 4 3 1 0 3 4 2 5 8 3 3 3 4 8 8 11 17 18 16 12 11 11 8 7 6 3 4 4 5 6 7 7 9 10 11 13 19 23 25 28 31 34 35 34 31 28 26 24 20 15 13 12 12 11 10 9 9 8 8 9 9 10 12 13 14 15 16 18 20 22 24 26 27
4 7 4 7 3 6 12 9 5 6 5 5 4 5 5 5 4 5 4 4 7 7 4 1 2 4 4 3 9 14 14 12 9 10 8 7 7 4 4 4 5 6 7 7 8 10 10 12 16 20 23 26 28 30 32 35 35 32 29 27 23 19 15 12 12 11 10 9 8 8 7 7 8 9 10 12 13 14 15 17 19 20 22 24 26 27
4 9 6 3 0 8 9 4 4 8 4 2 3 4 3 5 5 3 3 4 2 5 5 3 4 6 4 3 5 5 6 8 9 7 6 9 8 3 4 7 6 6 7 8 9 11 11 13 17 21 24 27 28 30 33 36 36 33 30 26 22 17 14 12 11 11 10 9 8 7 6 6 7 8 10 12 13 14 16 18 19 21 22 24 26 28
3 7 3 2 1 4 3 0 2 3 3 3 3 3 3 3 5 2 3 1 4 3 7 2 6 9 5 5 7 7 5 8 9 6 8 12 7 3 6 8 7 8 8 9 10 11 11 12 17 22 25 27 30 32 35 37 36 33 29 26 21 17 14 12 12 11 10 9 7 6 5 5 7 8 10 12 14 16 18 19 20 22 24 25 27 28
4 5 4 3 2 1 1 1 2 2 3 5 3 5 2 2 3 3 2 3 2 5 6 5 12 14 9 7 3 5 5 11 11 8 10 11 5 5 10 9 8 9 8 9 10 9 9 11 16 22 25 29 32 34 35 36 35 32 28 25 21 17 15 14 13 12 11 9 7 5 4 5 7 9 11 13 15 17 19 21 21 23 25 26 27 28
3 4 5 2 2 0 2 2 1 3 3 5 4 3 3 3 2 2 2 3 4 4 5 11 17 15 11 7 2 5 10 14 13 9 10 12 9 9 11 10 10 8 7 8 9 9 10 11 16 23 26 29 31 32 34 35 33 30 27 24 20 17 16 15 14 13 11 9 6 5 4 5 8 10 12 14 16 18 20 21 23 24 26 27 27 28
3 4 4 2 2 1 2 1 5 2 2 2 0 1 2 2 4 3 3 3 3 3 5 12 16 13 8 7 8 11 14 14 11 10 11 14 13 11 10 10 10 9 9 10 10 11 11 12 17 23 26 27 29 31 33 34 32 30 27 24 21 19 17 17 15 13 10 8 6 4 4 6 9 11 13 15 17 19 20 22 23 24 26 26 27 28
3 3 4 2 3 0 3 5 9 9 6 4 3 2 2 1 2 1 2 2 3 4 4 6 12 14 6 7 10 13 13 12 12 11 12 13 13 12 11 11 9 9 10 11 10 11 12 12 15 20 22 24 26 29 31 33 32 30 28 25 22 21 20 18 15 12 9 7 4 4 5 7 9 11 14 15 17 19 21 22 23 24 25 27 28 29
3 3 5 3 2 4 7 6 3 5 8 8 8 8 8 6 4 1 5 3 3 4 5 4 10 17 6 6 7 8 8 10 11 11 11 11 12 12 11 12 10 9 11 11 11 10 10 10 12 17 20 23 26 28 31 32 32 31 28 26 23 21 20 17 14 11 8 5 3 3 5 8 10 12 14 16 17 19 21 22 23 24 25 28 29 28
3 2 4 7 8 7 5 1 1 2 5 5 4 5 6 7 7 6 8 5 2 2 3 3 6 16 5 6 5 6 7 9 11 11 11 10 10 11 11 10 9 9 10 9 8 8 7 8 12 16 19 23 26 27 30 32 32 32 29 26 24 21 19 16 12 9 7 4 2 3 6 8 10 12 14 16 18 19 20 22 23 24 26 27 25 22
3 2 4 7 7 3 3 4 3 2 5 2 4 4 6 8 9 8 7 3 2 5 4 3 7 16 7 3 4 6 6 8 9 10 11 10 8 8 9 9 8 8 8 6 6 6 5 7 10 13 16 22 25 26 30 32 31 30 28 25 23 20 17 14 11 8 6 3 2 4 6 8 9 11 14 15 17 19 20 21 23 24 24 23 20 17
4 3 5 5 6 5 4 2 3 3 1 4 5 5 8 10 8 4 1 1 5 9 7 5 11 17 8 2 2 6 5 8 9 8 8 9 8 7 7 7 7 7 7 7 7 7 7 9 10 10 14 21 24 26 29 31 30 29 27 24 22 19 16 13 10 8 5 3 2 3 5 7 9 12 14 15 17 19 20 21 22 22 21 18 17 18
6 5 7 7 8 10 11 9 5 2 3 3 3 6 10 13 14 8 3 6 11 8 8 7 15 19 13 4 4 6 6 9 10 8 7 8 9 8 6 7 7 7 9 9 8 8 9 10 10 11 14 19 23 26 29 29 29 28 26 23 21 18 16 13 10 8 5 3 2 3 5 7 9 11 13 15 17 18 20 21 20 20 20 19 19 21
4 5 10 13 15 14 16 17 8 7 6 6 7 10 13 15 17 12 7 11 10 3 5 15 22 21 21 20 15 9 8 10 10 9 8 9 9 9 9 9 8 8 8 8 8 8 9 10 11 12 14 19 23 25 27 29 29 28 26 23 20 18 16 13 11 8 6 4 2 2 4 7 9 11 13 14 16 18 19 20 19 19 21 21 21 22
3 6 14 19 22 21 21 23 11 9 8 10 10 13 14 15 16 14 16 19 8 4 10 23 23 18 20 28 29 19 13 14 15 14 12 10 9 10 9 9 9 8 7 7 8 11 11 11 12 12 13 17 22 24 25 27 28 28 26 23 20 18 16 13 11 8 6 4 1 2 4 7 8 10 12 14 16 17 17 19 19 20 21 21 21 22
3 8 15 19 23 22 21 23 15 8 8 9 10 14 17 17 18 19 24 24 14 12 20 22 19 17 19 29 34 24 16 17 19 17 14 10 8 8 7 8 10 10 9 10 12 12 12 12 13 13 13 15 21 24 25 26 27 26 25 23 20 18 16 13 11 9 6 4 1 2 4 7 8 10 12 13 15 16 17 19 20 21 21 22 22 23
3 7 13 16 18 18 19 22 16 9 8 9 9 12 18 20 19 20 25 28 25 24 24 20 19 20 23 31 30 19 15 16 14 12 12 12 11 9 9 10 11 10 11 12 13 13 13 13 13 14 13 13 20 25 26 26 27 27 25 23 21 19 16 14 11 9 7 4 1 2 4 6 8 10 12 13 14 16 17 19 20 22 22 23 24 24
4 8 11 12 11 14 19 21 14 9 12 14 10 13 23 23 16 17 25 26 23 22 20 19 19 19 25 30 21 14 18 17 13 15 18 18 16 13 12 12 11 11 11 12 13 12 13 13 13 14 15 15 20 26 28 27 28 28 26 24 22 19 16 13 11 9 6 4 2 2 4 6 8 10 12 13 14 16 17 19 21 22 23 24 24 24
4 6 7 8 9 11 16 18 13 8 8 9 13 22 29 22 15 19 24 20 15 15 18 18 15 17 24 21 12 13 19 17 16 20 21 19 17 15 15 16 14 12 12 12 13 13 14 15 15 17 17 19 23 28 29 30 30 29 27 25 23 20 17 14 12 9 6 4 2 2 3 5 8 10 11 13 14 16 17 19 21 23 24 24 24 25
5 4 4 7 9 12 16 16 8 4 3 8 14 21 24 21 20 24 25 19 13 12 13 15 16 20 23 17 13 17 18 14 16 19 19 18 16 14 16 19 17 12 12 13 14 15 16 16 16 17 19 22 27 30 32 33 34 31 29 27 23 20 17 14 12 9 6 4 2 1 3 5 8 10 11 12 14 16 18 20 22 23 24 24 24 24
5 6 6 7 8 11 11 6 1 3 11 13 7 8 16 21 24 26 25 21 16 13 14 17 20 25 25 20 19 20 20 18 19 19 18 14 10 12 18 19 14 11 11 12 13 14 15 14 13 16 21 25 28 30 32 34 34 32 29 26 23 20 17 15 12 9 6 4 1 1 3 6 7 9 11 12 14 16 18 21 22 23 23 24 24 25
7 8 8 6 7 7 1 3 3 11 14 8 2 6 15 17 18 21 22 19 17 18 22 24 25 28 28 25 20 19 24 25 22 23 20 10 8 13 18 16 11 11 11 10 12 13 13 13 13 15 22 27 30 32 33 33 32 31 28 24 22 20 17 15 12 9 6 4 1 1 4 6 7 9 11 12 14 17 19 21 22 22 24 24 24 24
11 9 7 6 6 4 2 6 12 10 5 5 9 15 13 8 11 15 16 16 16 20 25 24 24 27 28 24 20 21 24 21 17 22 19 9 11 17 17 14 13 12 11 11 13 14 14 18 20 22 26 30 34 36 36 34 33 31 27 24 22 20 17 14 12 9 6 4 2 2 4 5 6 8 10 12 15 17 19 21 22 22 23 24 25 25
13 11 8 8 9 7 7 11 11 7 8 10 16 20 13 8 10 11 10 13 15 20 24 21 21 27 24 21 23 22 17 11 11 19 16 10 15 17 15 14 14 11 11 11 12 15 18 23 25 27 31 35 38 39 37 36 34 31 27 24 21 20 17 14 12 9 6 4 2 2 3 4 6 7 9 12 15 17 19 20 21 22 23 24 26 27
15 14 11 10 9 8 9 10 7 8 11 13 20 26 18 9 8 8 6 10 16 24 27 20 20 26 23 21 23 16 6 6 11 17 16 12 13 13 12 12 11 8 8 8 8 11 16 22 27 31 37 40 38 38 38 37 35 31 28 25 22 21 18 15 12 10 7 4 3 2 1 2 5 6 9 11 14 16 18 19 21 22 22 24 26 27
18 13 12 12 9 8 10 9 8 10 10 11 20 25 14 6 8 5 2 10 20 28 28 21 21 24 21 21 21 11 3 7 13 15 15 11 8 9 9 9 6 5 6 9 13 15 19 28 32 36 42 42 36 36 39 38 35 33 29 26 23 21 19 15 12 10 7 5 4 2 0 1 4 6 7 10 12 15 17 19 20 22 22 23 25 27
16 10 10 12 11 12 13 10 8 8 7 10 17 16 5 10 11 5 5 16 22 23 21 18 20 21 20 19 16 10 8 12 14 12 7 2 4 5 6 7 7 7 7 9 14 20 29 36 36 33 37 40 37 37 39 37 34 32 29 26 24 21 19 16 12 10 8 6 5 3 1 1 3 5 6 8 11 13 16 18 19 21 22 23 25 27
10 10 11 13 14 16 15 13 11 7 6 12 14 7 9 10 8 5 14 19 15 12 12 14 17 19 18 15 11 10 12 15 13 6 3 6 5 4 4 4 5 7 9 11 18 28 36 39 38 36 36 38 39 38 39 38 33 29 27 25 23 20 18 16 13 10 9 7 6 4 2 2 3 4 5 7 9 12 14 17 18 20 21 23 25 27
6 7 9 11 13 13 13 14 12 7 9 14 12 10 11 6 5 13 20 16 8 7 8 12 15 16 15 14 12 12 14 14 10 5 5 7 7 6 6 6 7 7 10 16 27 37 35 29 32 36 33 34 38 39 39 38 33 29 27 24 21 20 18 16 13 12 10 9 7 5 4 3 3 3 4 6 8 11 13 16 17 18 20 22 25 26
10 7 7 9 10 9 9 11 9 7 12 16 12 7 7 11 14 16 18 16 12 10 10 11 12 12 11 12 12 13 14 11 7 6 6 6 6 6 5 7 8 7 8 13 24 33 30 24 28 33 31 31 36 37 38 37 33 29 27 23 21 21 18 16 15 13 12 10 8 6 5 4 3 3 4 6 8 10 13 16 17 19 20 21 24 25
11 9 7 8 9 8 9 10 10 11 14 17 16 12 15 20 19 16 15 15 15 13 11 10 12 12 11 11 12 14 13 10 7 8 8 7 7 7 6 7 8 7 8 12 20 28 29 26 28 31 30 31 34 34 35 37 34 29 25 23 23 22 19 18 17 15 13 11 9 7 5 4 2 3 5 7 8 10 13 15 17 19 20 20 23 23
14 16 15 12 11 12 13 12 11 12 13 14 17 19 22 24 23 21 19 16 14 13 12 11 13 13 12 12 13 13 13 11 11 11 11 10 10 9 7 7 7 6 7 13 20 25 29 30 32 32 29 28 31 32 32 34 35 31 25 24 24 23 20 20 18 15 14 12 9 7 6 4 3 3 5 7 9 11 12 15 17 19 20 20 20 19
17 20 18 13 10 12 15 12 9 10 13 15 18 20 21 21 21 21 21 17 13 13 12 10 12 14 12 12 12 13 13 13 13 12 11 10 10 9 8 8 9 8 10 15 18 21 27 32 33 31 27 24 27 30 29 30 32 31 28 27 26 23 22 21 19 17 15 12 10 8 6 4 3 4 6 7 9 10 11 13 15 17 18 18 18 19
13 16 15 13 12 12 13 12 13 16 19 18 18 19 19 19 18 17 17 16 16 17 16 12 12 12 8 9 13 16 15 13 12 11 9 9 10 10 8 10 11 10 12 18 23 28 33 30 21 18 20 20 24 28 28 27 28 29 29 29 27 24 23 21 19 17 15 13 10 8 6 4 3 6 7 8 9 10 10 11 12 14 16 17 19 22
9 13 14 14 15 15 14 15 17 20 21 19 17 15 15 18 19 18 17 17 17 18 17 13 11 9 7 10 14 16 14 12 13 13 11 10 11 11 9 9 11 11 12 19 29 34 32 21 12 13 17 19 25 29 27 26 26 27 29 29 26 25 24 21 19 18 15 13 11 8 7 5 5 6 7 9 11 11 10 10 12 14 15 16 19 22
3 7 10 11 14 16 17 17 16 17 17 17 17 15 15 17 20 21 20 19 17 17 17 14 11 10 11 14 15 14 13 13 14 15 13 11 11 12 9 8 10 10 10 18 31 36 31 22 18 18 18 20 27 30 27 26 27 27 28 28 26 25 24 22 20 18 15 13 11 9 8 6 6 7 7 9 12 12 10 9 10 13 15 16 17 19
5 8 8 10 13 14 14 16 16 16 15 16 18 20 20 19 20 21 20 19 18 18 19 18 15 11 12 14 14 14 15 15 13 14 14 13 13 14 12 10 9 9 10 18 29 33 32 31 30 28 24 24 29 30 28 28 28 27 27 27 26 25 24 23 22 18 15 13 12 10 9 8 8 7 6 7 11 14 13 9 6 7 11 15 17 17
10 11 10 11 15 16 15 14 14 14 16 17 18 20 20 18 18 20 20 20 21 20 20 20 19 15 14 15 14 15 17 16 14 15 14 13 13 16 17 14 11 10 14 20 23 21 22 28 32 32 29 29 31 31 30 29 27 26 27 27 25 24 23 23 22 19 16 14 12 11 10 9 9 8 5 5 8 12 15 14 10 7 6 11 16 18
Wind_Direction
95 113 229 227 227 207 205 201 189 175 146 138 152 185 230 239 263 265 254 284 296 214 258 252 252 264 267 270 274 269 196 242 253 249 254 250 245 228 214 220 217 223 227 209 205 203 200 197 193 192 189 189 190 190 190 189 192 195 198 201 200 201 205 209 217 223 233 244 256 265 275 280 286 296 293 288 299 307 310 315 321 324 326 325 328 330
85 196 241 233 215 189 192 178 130 118 125 117 161 206 257 235 253 270 273 320 350 181 262 275 277 268 265 269 273 266 236 254 253 236 250 253 247 233 217 224 221 223 219 190 200 200 198 197 195 193 190 189 190 189 191 192 194 196 200 203 200 202 207 212 221 229 238 249 262 271 282 292 297 301 299 298 305 308 311 317 320 323 325 325 327 328
59 238 246 223 160 118 87 123 123 122 132 122 139 181 259 243 271 290 310 347 359 196 270 293 286 270 265 264 267 264 246 256 255 218 238 252 248 233 220 225 220 215 213 197 199 196 196 198 195 194 192 192 193 191 192 194 195 197 201 202 200 203 208 213 223 231 240 249 261 272 282 294 300 303 302 304 309 309 313 319 319 321 322 322 324 324
189 249 247 168 136 116 82 104 119 110 127 154 147 179 248 241 284 283 304 331 284 227 280 291 279 267 262 256 261 269 256 259 263 227 237 249 243 234 223 220 213 211 214 205 200 195 194 198 197 197 195 193 193 193 194 194 195 199 202 201 200 204 208 214 223 229 236 244 254 267 278 288 294 296 299 303 307 310 313 315 316 318 319 319 321 323
228 237 161 123 129 122 117 138 141 148 223 237 196 210 239 228 221 237 281 322 308 314 327 308 291 278 258 250 260 286 317 277 266 241 254 249 233 241 234 218 214 214 213 204 199 194 191 197 200 199 197 194 194 195 196 195 196 200 202 200 201 205 209 214 223 227 232 239 246 259 271 282 289 293 300 305 308 311 312 312 315 318 319 319 319 322
248 223 140 131 130 120 141 192 187 175 204 286 229 217 224 223 231 249 325 352 348 325 333 6 321 298 250 231 266 289 317 288 252 223 261 257 216 222 235 226 220 219 213 203 198 194 194 199 199 198 198 197 197 198 198 197 200 201 201 200 200 203 207 213 221 227 231 235 241 250 263 276 287 294 299 304 305 308 310 310 314 317 319 318 317 320
253 166 125 151 164 157 176 233 223 172 152 282 244 208 206 200 212 239 293 352 276 253 304 51 333 280 262 208 269 289 301 286 273 251 260 263 230 213 227 228 221 216 205 200 198 194 197 196 195 199 200 199 200 199 198 199 201 200 200 200 200 202 206 213 220 226 231 232 236 246 259 271 281 287 294 301 301 303 307 309 313 317 318 318 318 320
157 99 82 125 139 157 191 244 216 158 141 239 231 133 139 152 177 194 163 195 239 272 325 322 183 272 275 238 256 291 298 284 279 271 266 261 246 228 227 227 220 211 196 194 198 196 197 196 197 200 201 201 201 198 198 199 200 199 199 200 200 201 205 213 222 226 228 229 234 244 258 269 274 280 289 299 302 304 307 310 315 318 318 319 320 321
120 148 174 147 129 172 204 233 191 159 159 235 184 117 120 138 153 155 144 191 266 20 307 249 169 266 274 241 288 2 261 263 267 264 264 262 252 237 231 230 219 207 197 195 200 199 198 197 200 201 200 201 200 198 199 200 199 198 198 199 199 201 204 214 222 224 225 227 232 242 253 265 273 277 286 295 298 303 308 311 314 317 318 320 321 323
74 193 196 151 151 203 208 263 180 168 194 184 129 95 77 77 81 90 129 158 11 340 258 237 171 222 273 223 138 58 203 240 252 257 260 261 256 243 236 234 212 198 200 201 205 203 200 200 201 200 199 200 199 199 200 199 198 197 196 196 198 200 205 215 221 220 221 224 229 239 250 264 273 279 286 292 296 303 308 309 313 316 318 319 321 323
5 264 205 153 171 186 140 81 76 131 145 128 108 71 49 44 51 50 62 90 7 269 255 237 182 192 269 249 168 199 202 211 223 245 259 260 261 250 234 228 196 194 202 204 208 204 199 200 198 196 197 198 198 198 199 198 197 195 195 196 197 199 205 214 219 217 217 220 228 239 249 261 273 281 288 293 299 307 309 309 314 318 318 319 321 322
352 18 234 216 155 128 101 75 41 47 89 107 97 71 32 341 12 17 359 57 272 257 260 249 177 184 242 254 208 238 246 220 207 221 232 234 249 245 211 207 197 198 201 197 201 196 189 190 190 193 196 195 195 196 196 195 194 194 194 195 194 197 204 212 216 214 214 218 226 238 249 260 271 279 284 291 298 305 307 309 315 319 320 321 322 322
295 222 220 217 165 146 118 83 29 8 56 106 102 86 43 321 354 348 307 132 227 255 249 146 143 206 244 247 238 250 256 238 216 217 217 215 228 221 188 212 208 199 199 195 195 193 191 189 189 193 194 193 193 194 193 191 191 192 193 193 194 196 202 209 213 213 213 217 225 237 249 259 268 277 284 289 295 301 304 308 314 316 316 318 320 319
294 290 152 163 242 182 159 168 213 238 177 163 149 129 143 160 56 273 269 275 270 271 264 136 142 257 270 256 226 225 234 230 217 221 222 222 232 230 227 224 212 208 202 197 197 196 198 196 194 194 193 193 194 193 191 189 190 191 191 192 193 195 200 207 213 213 213 217 226 237 247 260 269 279 287 289 295 302 306 309 311 311 312 313 314 313
246 285 202 176 219 177 181 199 179 138 151 179 154 140 160 154 181 236 234 250 275 292 292 211 177 223 242 259 220 220 236 237 225 224 225 241 249 243 257 239 217 215 206 201 204 204 205 199 194 194 193 194 194 192 190 189 190 191 191 191 191 192 197 204 209 211 213 217 224 235 246 261 272 283 291 295 301 307 310 312 311 311 312 312 311 309
221 267 233 177 202 165 181 214 115 110 134 201 127 126 182 174 177 232 221 198 243 317 290 230 218 223 215 288 263 238 264 252 237 233 231 246 245 231 258 246 227 218 209 206 208 208 208 199 194 194 193 193 193 191 190 190 190 190 190 191 190 191 195 199 204 207 212 214 219 230 244 261 276 288 295 301 309 312 315 314 311 312 313 313 311 310
206 273 264 70 346 169 169 275 96 120 171 167 150 175 208 175 139 170 268 24 73 280 274 247 255 271 297 292 240 203 231 245 239 233 231 239 237 223 248 242 229 221 211 208 211 210 204 197 197 197 194 192 191 190 191 191 190 189 189 189 187 187 191 195 201 204 207 209 212 224 242 269 286 294 302 309 315 317 317 316 314 314 315 314 313 311
196 266 253 152 188 229 30 77 54 13 119 131 192 212 176 116 100 109 253 341 25 246 272 289 269 273 285 284 235 165 218 242 237 226 232 241 231 228 242 238 230 224 214 215 215 213 206 199 200 199 197 196 193 191 191 188 188 188 189 189 188 188 191 195 199 199 200 204 208 224 250 281 295 303 311 315 318 319 318 317 317 317 316 316 315 312
173 246 267 130 121 356 26 109 94 353 73 124 198 206 113 143 167 110 172 239 255 243 276 280 275 271 256 245 193 177 216 232 233 224 230 237 227 227 238 238 234 224 212 218 215 209 208 203 202 199 197 197 194 191 188 185 185 184 185 186 187 190 193 195 196 195 197 202 208 229 264 294 305 312 317 319 321 320 317 318 319 318 317 317 315 312
143 213 262 4 13 353 36 153 189 208 63 73 227 34 56 161 173 168 170 183 215 227 267 279 282 276 239 192 180 204 215 218 219 215 222 229 224 222 226 231 230 217 212 216 212 210 209 205 204 201 196 193 189 187 184 182 180 180 181 183 186 190 191 193 195 193 195 201 213 243 281 304 311 316 319 321 321 319 319 320 321 320 319 316 314 312
87 210 240 321 347 259 190 204 199 191 172 156 175 187 217 184 127 209 232 128 144 198 237 271 278 273 244 157 179 206 212 206 201 205 214 220 222 220 220 225 223 213 217 215 210 211 208 204 203 198 194 188 183 182 180 179 178 177 180 184 187 189 191 192 193 192 195 200 217 266 297 309 315 318 319 321 321 320 322 323 323 322 319 314 313 313
147 202 221 222 264 231 220 222 205 188 177 174 187 194 194 183 139 192 250 222 147 198 206 191 263 271 256 141 184 201 198 204 203 208 215 216 218 220 221 224 219 213 219 216 212 210 203 199 194 187 184 180 178 179 177 176 176 177 180 184 187 190 191 191 191 191 195 201 223 282 307 313 316 319 320 322 323 324 325 326 325 323 317 313 314 314
138 149 219 232 241 239 240 281 45 153 151 158 207 195 178 181 170 190 232 231 144 229 222 123 264 270 251 135 182 193 183 204 205 205 214 218 219 222 224 226 222 221 224 219 211 205 196 191 181 177 177 176 177 178 176 175 176 177 181 184 187 189 189 189 189 190 192 201 243 298 312 314 317 320 324 327 325 325 327 327 325 322 317 315 313 309
109 143 215 246 264 292 16 35 26 56 104 147 240 189 172 203 201 205 224 191 158 228 211 122 255 262 264 121 195 207 195 218 222 209 213 223 229 231 233 232 227 228 229 219 205 195 181 174 170 172 177 178 179 178 176 175 175 177 180 183 186 187 187 188 187 186 189 201 264 304 310 315 322 326 328 329 326 327 329 327 324 321 318 315 309 303
177 186 195 231 269 285 298 325 348 348 157 210 234 183 189 216 215 229 298 127 236 229 178 165 249 257 268 53 220 241 233 235 243 232 221 230 239 238 239 239 232 228 225 214 198 183 177 176 177 181 182 181 180 178 176 175 175 176 179 182 185 184 185 188 185 182 188 201 256 298 313 322 330 333 332 329 328 330 330 327 323 320 317 312 307 306
179 186 181 203 233 241 248 248 235 196 191 220 226 178 190 206 205 209 225 224 237 223 156 187 248 258 266 262 225 244 251 246 249 249 240 241 247 246 245 242 231 223 222 212 194 186 186 187 186 185 182 182 181 179 177 175 175 176 178 180 183 184 183 184 182 180 184 200 246 297 324 335 338 337 333 330 332 332 330 326 323 319 317 314 311 312
158 188 193 212 228 229 240 248 222 130 151 210 210 197 201 208 206 203 227 235 229 178 179 226 242 256 270 271 258 239 235 245 250 248 244 246 248 246 244 240 228 222 222 207 192 191 192 191 191 186 183 184 183 179 176 175 175 175 176 177 180 183 183 181 179 178 182 198 236 314 340 343 342 338 334 333 334 333 328 325 322 318 318 319 317 317
145 212 212 220 233 232 239 248 228 147 181 210 201 208 214 211 202 200 225 233 211 136 236 241 242 252 267 269 264 253 242 252 258 256 253 252 245 237 236 235 227 226 221 198 197 201 196 194 191 186 184 182 181 179 175 175 176 176 176 177 179 182 182 179 177 176 180 190 213 346 348 347 344 338 336 337 335 332 327 324 323 322 323 324 324 323
174 228 222 225 238 237 242 251 237 185 203 211 195 212 222 215 203 204 227 234 216 215 241 246 248 253 257 260 262 261 258 259 263 265 265 260 248 235 231 231 227 224 213 202 206 205 198 197 191 185 184 179 177 177 174 174 175 174 174 177 180 183 182 178 175 176 180 178 143 3 353 350 344 340 340 339 336 331 327 327 329 330 330 331 331 328
190 235 234 236 246 246 247 252 241 207 224 235 212 219 233 230 212 210 230 237 229 232 245 253 257 258 256 257 262 272 273 265 266 274 274 264 254 243 234 235 233 225 213 208 211 207 200 199 192 184 180 176 178 178 174 171 171 172 174 177 181 183 181 177 175 175 174 162 122 7 0 352 344 344 343 340 335 331 330 333 335 336 336 337 336 331
211 229 237 244 256 254 251 255 246 209 223 242 243 243 246 243 227 222 235 240 239 245 253 257 260 260 257 259 269 283 277 272 275 276 273 270 268 265 258 254 243 227 217 213 210 205 201 198 188 183 183 183 183 178 173 171 170 172 176 179 181 182 178 177 176 172 166 153 123 16 3 350 344 348 345 339 335 333 335 338 338 340 341 340 336 331
212 229 239 247 258 252 250 257 251 208 209 238 243 246 248 247 238 238 241 240 239 251 260 260 257 254 257 264 273 266 262 265 269 268 267 269 270 269 269 268 257 233 217 213 208 201 200 195 187 186 187 185 182 179 173 171 170 172 177 179 181 180 176 176 173 165 159 151 123 27 358 347 348 349 342 338 337 337 339 341 342 343 343 339 335 332
188 202 223 233 248 252 250 254 247 162 186 241 237 240 248 251 248 249 253 251 236 233 251 257 254 256 264 271 268 260 260 257 255 258 261 264 266 265 264 265 260 239 217 211 206 200 198 197 190 188 187 183 181 179 175 172 172 174 177 178 177 176 174 172 167 160 156 151 122 30 355 351 352 346 339 339 341 340 342 343 345 345 342 337 335 332
185 204 227 230 243 252 247 244 120 176 235 246 236 221 237 246 249 252 258 259 247 235 241 248 256 263 267 266 262 266 268 261 254 256 256 251 250 256 259 260 255 238 224 212 204 203 199 194 189 185 183 181 180 177 174 174 174 174 175 174 173 173 171 166 162 160 157 145 126 18 358 356 350 342 338 342 343 342 343 345 346 345 342 338 335 331
210 214 229 232 243 252 197 117 219 232 235 248 305 237 235 238 244 253 260 260 254 251 249 248 253 260 263 265 265 265 265 264 265 267 261 233 208 244 258 259 245 230 227 213 200 202 195 182 179 179 179 178 175 171 170 171 171 171 171 172 170 168 166 162 160 160 157 148 138 12 3 356 345 339 341 345 346 343 344 346 346 344 343 338 333 329
225 225 228 226 235 243 144 198 232 246 271 319 290 260 244 228 235 253 265 261 251 251 252 251 253 256 260 265 265 259 261 267 273 272 264 211 199 235 246 247 244 232 221 211 200 196 190 182 181 179 175 172 170 168 167 166 167 168 168 169 168 164 162 161 160 159 157 152 130 27 5 349 339 339 344 348 347 344 344 346 346 345 343 337 332 328
223 226 231 230 229 233 230 228 240 280 301 282 264 254 240 218 224 237 255 261 254 251 251 249 252 256 258 258 259 261 270 284 280 273 265 214 210 232 233 233 243 232 214 210 199 190 187 182 178 173 167 164 164 165 164 164 166 166 164 164 164 162 161 162 163 162 157 146 114 40 3 336 334 341 348 350 347 343 344 346 345 344 342 335 330 327
220 220 223 231 227 224 240 246 244 253 251 243 248 253 249 222 205 202 227 260 260 255 254 248 247 254 256 254 257 261 281 291 270 270 271 242 216 220 223 228 237 223 201 191 172 169 172 168 165 163 161 159 161 163 163 164 166 163 160 161 162 162 164 165 164 161 152 136 119 76 7 328 334 346 351 350 344 342 344 345 343 343 340 333 326 322
221 219 222 235 237 223 236 244 232 234 240 235 247 258 253 174 153 147 220 259 255 254 255 251 246 249 250 252 254 249 235 260 259 263 271 257 213 201 212 218 210 186 172 164 161 160 159 157 156 157 158 157 158 161 163 164 164 161 159 160 161 163 166 167 163 157 146 135 134 133 121 335 345 352 351 345 340 340 343 344 342 340 337 331 325 319
216 214 219 230 233 229 233 239 238 240 242 238 247 255 215 141 130 114 258 258 253 250 248 244 242 241 238 241 246 234 220 237 247 255 263 237 164 180 192 187 176 164 153 154 159 157 154 152 150 152 157 158 158 161 163 163 162 159 158 159 162 164 166 165 160 151 144 141 142 147 130 31 8 355 348 340 336 336 342 345 343 339 335 330 324 319
208 209 217 222 226 228 228 235 243 239 230 238 238 201 133 122 119 181 241 252 251 238 226 221 226 231 228 224 223 219 222 229 236 238 148 130 143 152 147 142 144 145 143 145 149 149 149 151 153 156 158 159 158 160 162 161 158 156 156 158 161 165 164 161 154 146 144 144 144 140 114 64 30 0 347 341 337 335 341 346 343 337 333 327 322 317
192 200 214 218 224 227 225 235 245 235 221 227 214 151 134 151 202 225 239 247 234 198 203 212 218 222 219 213 210 217 225 226 220 192 159 165 169 157 146 136 125 126 133 140 146 148 148 151 154 153 153 157 159 160 162 160 155 154 156 157 160 164 162 156 149 144 145 145 140 131 110 83 47 11 354 346 341 337 339 344 342 336 331 325 319 314
184 191 210 205 210 222 224 228 235 232 216 204 182 146 170 208 226 234 242 249 241 219 213 219 224 221 212 209 214 224 230 225 203 187 188 180 164 155 154 149 141 135 131 138 149 153 151 150 151 149 150 157 159 160 162 160 154 153 156 156 159 162 158 151 147 145 145 142 136 130 117 94 63 22 6 356 349 342 338 339 338 334 330 324 318 313
179 187 213 202 193 205 219 215 213 226 217 185 171 187 207 212 224 235 237 243 246 238 228 228 233 226 211 208 216 226 230 223 202 193 190 182 173 165 155 153 153 147 140 145 154 157 153 149 148 148 150 157 160 161 164 161 154 151 153 156 159 158 152 147 146 145 143 140 136 134 126 108 83 35 19 10 358 347 341 338 335 331 328 326 320 314
189 199 220 222 203 205 220 220 210 221 221 191 188 208 215 214 222 231 234 237 240 240 237 235 235 229 214 209 217 226 227 218 206 200 196 190 180 163 149 150 149 136 135 144 151 157 157 152 148 146 148 156 161 162 165 163 156 150 151 157 159 155 148 146 147 144 142 141 139 139 134 122 100 48 29 19 6 354 344 337 332 328 327 327 322 312
207 211 224 231 220 220 232 232 216 219 222 210 210 219 222 220 222 228 237 240 239 242 241 235 238 234 217 206 215 227 226 215 205 203 199 187 175 159 143 142 143 138 139 145 151 157 155 150 146 144 143 151 161 163 165 164 158 152 154 159 158 151 148 147 146 144 143 144 145 145 140 130 101 57 38 22 9 359 346 335 329 325 324 325 321 315
221 222 228 230 224 226 232 223 215 223 225 219 219 224 229 232 230 228 234 239 240 244 242 237 241 240 216 196 210 225 226 209 196 198 193 178 176 168 149 146 154 156 156 156 158 157 153 150 148 144 139 147 161 165 164 163 159 155 156 158 154 149 149 148 145 144 145 146 147 146 139 127 84 54 38 21 9 1 350 341 333 326 322 322 320 317
219 218 224 230 228 231 235 224 221 231 231 225 225 226 227 236 239 236 235 237 239 244 246 241 236 227 207 203 213 223 223 202 191 194 189 179 181 176 161 155 158 155 153 157 157 157 156 154 152 147 143 148 160 164 163 160 159 157 156 155 151 149 149 147 145 145 144 143 143 138 130 118 78 55 35 13 5 360 352 348 345 335 326 323 322 318
261 222 223 235 236 240 244 239 238 247 246 238 237 234 225 230 235 236 237 238 240 247 251 246 234 217 212 217 219 217 216 209 199 190 183 180 180 175 167 158 153 147 146 155 159 161 162 159 153 147 143 149 158 162 161 159 158 158 156 153 151 151 150 147 145 144 141 141 140 130 123 114 85 65 40 6 357 355 351 348 346 335 324 324 328 327
273 252 237 241 243 242 241 234 232 241 246 242 239 236 232 231 233 237 241 240 239 241 244 244 241 228 221 227 221 210 214 216 201 183 181 184 183 177 166 151 147 144 140 149 157 162 163 160 156 150 145 150 157 159 158 158 159 159 157 152 150 153 153 148 144 142 139 139 136 127 122 113 93 78 53 10 353 351 353 357 355 337 324 325 332 336
235 243 236 241 249 251 249 240 231 236 246 246 243 242 240 236 234 237 239 239 239 238 237 240 241 234 231 233 222 212 218 217 192 178 185 189 182 176 169 160 154 149 146 149 154 157 159 159 157 151 148 154 159 159 158 159 159 158 156 152 151 154 154 150 145 142 139 138 133 126 122 111 98 89 67 22 354 350 353 356 1 14 7 349 345 346